| time (UTC) | temp F | wind direction | speed knots | gust knots | rain 1hr in | rain 24hr in | rain mn in | humidity % | barometer mb |
| 20260503193156 | 61 | 229 | 6.1 | 9.6 | 0.00 | 0.00 | 0.00 | 40 | 977.0 |
| 20260503192655 | 62 | 248 | 10.4 | 16.5 | 0.00 | 0.00 | 0.00 | 38 | 976.0 |
| 20260503192155 | 63 | 207 | 7.8 | 13.9 | 0.00 | 0.00 | 0.00 | 38 | 977.0 |
| 20260503191655 | 62 | 167 | 6.1 | 13.9 | 0.00 | 0.00 | 0.00 | 38 | 977.0 |
| 20260503191155 | 61 | 253 | 9.6 | 15.6 | 0.00 | 0.00 | 0.00 | 37 | 977.0 |
| 20260503190656 | 61 | 218 | 1.7 | 9.6 | 0.00 | 0.00 | 0.00 | 40 | 977.0 |
| 20260503190158 | 61 | 278 | 5.2 | 7.0 | 0.00 | 0.00 | 0.00 | 39 | 977.0 |
| 20260503185655 | 62 | 296 | 12.2 | 16.5 | 0.00 | 0.00 | 0.00 | 38 | 977.0 |
| 20260503185156 | 62 | 249 | 8.7 | 15.6 | 0.00 | 0.00 | 0.00 | 37 | 977.0 |
| 20260503184655 | 63 | 189 | 3.5 | 7.8 | 0.00 | 0.00 | 0.00 | 38 | 977.0 |
| 20260503184155 | 63 | 271 | 7.8 | 14.8 | 0.00 | 0.00 | 0.00 | 38 | 977.0 |
| 20260503183655 | 63 | 211 | 1.7 | 18.2 | 0.00 | 0.00 | 0.00 | 41 | 978.0 |
| 20260503183158 | 63 | 244 | 7.0 | 18.2 | 0.00 | 0.00 | 0.00 | 39 | 978.0 |
| 20260503182655 | 62 | 230 | 8.7 | 13.0 | 0.00 | 0.00 | 0.00 | 37 | 977.0 |
| 20260503182156 | 61 | 226 | 5.2 | 19.1 | 0.00 | 0.00 | 0.00 | 38 | 978.0 |
| 20260503181655 | 61 | 219 | 6.1 | 13.9 | 0.00 | 0.00 | 0.00 | 38 | 978.0 |
| 20260503181155 | 62 | 270 | 9.6 | 14.8 | 0.00 | 0.00 | 0.00 | 35 | 978.0 |
| 20260503180656 | 63 | 282 | 17.4 | 20.9 | 0.00 | 0.00 | 0.00 | 37 | 978.0 |
| 20260503180155 | 62 | 274 | 9.6 | 11.3 | 0.00 | 0.00 | 0.00 | 40 | 978.0 |
| 20260503175655 | 61 | 214 | 9.6 | 12.2 | 0.00 | 0.00 | 0.00 | 39 | 978.0 |
| 20260503175155 | 62 | 273 | 7.0 | 11.3 | 0.00 | 0.00 | 0.00 | 39 | 978.0 |
| 20260503174655 | 60 | 286 | 6.1 | 18.2 | 0.00 | 0.00 | 0.00 | 38 | 978.0 |
| 20260503174155 | 62 | 232 | 9.6 | 16.5 | 0.00 | 0.00 | 0.00 | 36 | 978.0 |
| 20260503173656 | 62 | 226 | 7.0 | 15.6 | 0.00 | 0.00 | 0.00 | 35 | 978.0 |
| 20260503173155 | 61 | 250 | 7.8 | 11.3 | 0.00 | 0.00 | 0.00 | 39 | 978.0 |
| 20260503172655 | 60 | 224 | 5.2 | 13.0 | 0.00 | 0.00 | 0.00 | 38 | 978.0 |
| 20260503172156 | 61 | 256 | 7.0 | 9.6 | 0.00 | 0.00 | 0.00 | 37 | 978.0 |
| 20260503171655 | 61 | 262 | 6.1 | 12.2 | 0.00 | 0.00 | 0.00 | 40 | 978.0 |
| 20260503171156 | 59 | 246 | 3.5 | 7.0 | 0.00 | 0.00 | 0.00 | 45 | 978.0 |
| 20260503170655 | 58 | 266 | 4.3 | 12.2 | 0.00 | 0.00 | 0.00 | 44 | 979.0 |
| 20260503170156 | 58 | 217 | 10.4 | 13.9 | 0.00 | 0.00 | 0.00 | 42 | 979.0 |
| 20260503160201 | 55 | 281 | 3.5 | 7.8 | 0.00 | 0.00 | 0.00 | 46 | 979.0 |
| 20260503150655 | 56 | 266 | 7.0 | 11.3 | 0.00 | 0.00 | 0.00 | 41 | 980.0 |
| 20260503150155 | 57 | 279 | 7.8 | 19.1 | 0.00 | 0.00 | 0.00 | 41 | 980.0 |
| 20260503140155 | 55 | 225 | 5.2 | 8.7 | 0.00 | 0.00 | 0.00 | 45 | 980.0 |
| 20260503131155 | 50 | 265 | 4.3 | 7.0 | 0.00 | 0.00 | 0.00 | 50 | 980.0 |
| 20260503130655 | 50 | 284 | 4.3 | 8.7 | 0.00 | 0.00 | 0.00 | 54 | 980.0 |
| 20260503130155 | 49 | 246 | 5.2 | 7.8 | 0.00 | 0.00 | 0.00 | 52 | 980.0 |
| 20260503120155 | 45 | 269 | 2.6 | 5.2 | 0.00 | 0.00 | 0.00 | 55 | 980.0 |
| 20260503110655 | 38 | 170 | 0.0 | 0.9 | 0.00 | 0.00 | 0.00 | 66 | 980.0 |
| 20260503110155 | 38 | 151 | 0.9 | 1.7 | 0.00 | 0.00 | 0.00 | 66 | 980.0 |
| 20260503100156 | 38 | 157 | 0.9 | 2.6 | 0.00 | 0.00 | 0.00 | 63 | 980.0 |
| 20260503090155 | 38 | 171 | 0.0 | 0.9 | 0.00 | 0.00 | 0.00 | 60 | 981.0 |
| 20260503081155 | 36 | 186 | 0.0 | 0.0 | 0.00 | 0.00 | 0.00 | 63 | 981.0 |
| 20260503080655 | 37 | 198 | 0.9 | 1.7 | 0.00 | 0.00 | 0.00 | 63 | 981.0 |
| 20260503080155 | 37 | 186 | 0.0 | 0.0 | 0.00 | 0.00 | 0.00 | 63 | 981.0 |
| 20260503072657 | 37 | 179 | 0.0 | 1.7 | 0.00 | 0.00 | 0.00 | 62 | 981.0 |
| 20260503072155 | 37 | 183 | 0.0 | 0.0 | 0.00 | 0.00 | 0.00 | 62 | 981.0 |
| 20260503071656 | 37 | 224 | 0.9 | 1.7 | 0.00 | 0.00 | 0.00 | 63 | 981.0 |
| 20260503071155 | 37 | 203 | 0.0 | 0.9 | 0.00 | 0.00 | 0.00 | 63 | 981.0 |
| 20260503070655 | 37 | 197 | 0.9 | 1.7 | 0.00 | 0.00 | 0.00 | 62 | 981.0 |
| 20260503070155 | 37 | 195 | 0.0 | 0.9 | 0.00 | 0.00 | 0.00 | 63 | 981.0 |
| 20260503060155 | 32 | 180 | 0.0 | 0.0 | 0.00 | 0.00 | 0.00 | 76 | 982.0 |
| 20260503054655 | 32 | 180 | 0.0 | 0.0 | 0.00 | 0.00 | 0.00 | 77 | 982.0 |
| 20260503054155 | 32 | 180 | 0.0 | 0.0 | 0.00 | 0.00 | 0.00 | 77 | 982.0 |
| 20260503053655 | 32 | 180 | 0.0 | 0.0 | 0.00 | 0.00 | 0.00 | 78 | 982.0 |
| 20260503053159 | 32 | 180 | 0.0 | 0.0 | 0.00 | 0.00 | 0.00 | 78 | 982.0 |
| 20260503052655 | 32 | 180 | 0.0 | 0.0 | 0.00 | 0.00 | 0.00 | 79 | 982.0 |
| 20260503052156 | 32 | 180 | 0.0 | 0.0 | 0.00 | 0.00 | 0.00 | 79 | 982.0 |
| 20260503051655 | 32 | 180 | 0.0 | 0.0 | 0.00 | 0.00 | 0.00 | 79 | 982.0 |
| 20260503051156 | 32 | 180 | 0.0 | 0.0 | 0.00 | 0.00 | 0.00 | 79 | 982.0 |
| 20260503050656 | 32 | 180 | 0.0 | 0.0 | 0.00 | 0.00 | 0.00 | 79 | 982.0 |
| 20260503050156 | 32 | 180 | 0.0 | 0.0 | 0.00 | 0.00 | 0.00 | 78 | 982.0 |
| 20260503045655 | 32 | 180 | 0.0 | 0.0 | 0.00 | 0.00 | 0.00 | 79 | 982.0 |
| 20260503045155 | 32 | 180 | 0.0 | 0.0 | 0.00 | 0.00 | 0.00 | 80 | 982.0 |
| 20260503044656 | 32 | 180 | 0.0 | 0.0 | 0.00 | 0.00 | 0.00 | 80 | 982.0 |
| 20260503044155 | 32 | 180 | 0.0 | 0.0 | 0.00 | 0.00 | 0.00 | 80 | 982.0 |
| 20260503043655 | 32 | 180 | 0.0 | 0.0 | 0.00 | 0.00 | 0.00 | 80 | 982.0 |
| 20260503043155 | 32 | 180 | 0.0 | 0.0 | 0.00 | 0.00 | 0.00 | 81 | 982.0 |
| 20260503042655 | 32 | 180 | 0.0 | 0.0 | 0.00 | 0.00 | 0.00 | 81 | 982.0 |
| 20260503042155 | 32 | 180 | 0.0 | 0.0 | 0.00 | 0.00 | 0.00 | 81 | 982.0 |
| 20260503041655 | 32 | 180 | 0.0 | 0.0 | 0.00 | 0.00 | 0.00 | 80 | 982.0 |
| 20260503041155 | 33 | 180 | 0.0 | 0.0 | 0.00 | 0.00 | 0.00 | 81 | 982.0 |
| 20260503040656 | 33 | 180 | 0.0 | 0.0 | 0.00 | 0.00 | 0.00 | 81 | 982.0 |
| 20260503040155 | 33 | 180 | 0.0 | 0.0 | 0.00 | 0.00 | 0.00 | 81 | 982.0 |
| 20260503035655 | 33 | 180 | 0.0 | 0.0 | 0.00 | 0.00 | 0.00 | 82 | 982.0 |
| 20260503035155 | 33 | 180 | 0.0 | 0.0 | 0.00 | 0.00 | 0.00 | 83 | 982.0 |
| 20260503034655 | 33 | 180 | 0.0 | 0.0 | 0.00 | 0.00 | 0.00 | 84 | 982.0 |
| 20260503034155 | 33 | 180 | 0.0 | 0.0 | 0.00 | 0.00 | 0.00 | 84 | 982.0 |
| 20260503033655 | 33 | 180 | 0.0 | 0.0 | 0.00 | 0.00 | 0.00 | 84 | 982.0 |
| 20260503033155 | 33 | 180 | 0.0 | 0.0 | 0.00 | 0.00 | 0.00 | 85 | 982.0 |
| 20260503032655 | 33 | 180 | 0.0 | 0.0 | 0.00 | 0.00 | 0.00 | 85 | 982.0 |
| 20260503032157 | 33 | 180 | 0.0 | 0.0 | 0.00 | 0.00 | 0.00 | 85 | 982.0 |
| 20260503031655 | 33 | 180 | 0.0 | 0.0 | 0.00 | 0.00 | 0.00 | 84 | 982.0 |
| 20260503031155 | 33 | 180 | 0.0 | 0.0 | 0.00 | 0.00 | 0.00 | 83 | 982.0 |
| 20260503030655 | 33 | 180 | 0.0 | 0.0 | 0.00 | 0.00 | 0.00 | 83 | 982.0 |
| 20260503030155 | 34 | 180 | 0.0 | 0.0 | 0.00 | 0.00 | 0.00 | 83 | 982.0 |
| 20260503025656 | 34 | 180 | 0.0 | 0.0 | 0.00 | 0.00 | 0.00 | 84 | 982.0 |
| 20260503025155 | 34 | 180 | 0.0 | 0.0 | 0.00 | 0.00 | 0.00 | 84 | 982.0 |
| 20260503024655 | 34 | 180 | 0.0 | 0.0 | 0.00 | 0.00 | 0.00 | 83 | 982.0 |
| 20260503024156 | 34 | 180 | 0.0 | 0.0 | 0.00 | 0.00 | 0.00 | 82 | 982.0 |
| 20260503023655 | 34 | 180 | 0.0 | 0.0 | 0.00 | 0.00 | 0.00 | 82 | 982.0 |
| 20260503023156 | 34 | 180 | 0.0 | 0.0 | 0.00 | 0.00 | 0.00 | 82 | 982.0 |
| 20260503022655 | 34 | 180 | 0.0 | 0.0 | 0.00 | 0.00 | 0.00 | 81 | 982.0 |
| 20260503022155 | 35 | 180 | 0.0 | 0.0 | 0.00 | 0.00 | 0.00 | 79 | 982.0 |
| 20260503021655 | 35 | 180 | 0.0 | 0.0 | 0.00 | 0.00 | 0.00 | 79 | 982.0 |
| 20260503021156 | 35 | 180 | 0.0 | 0.0 | 0.00 | 0.00 | 0.00 | 79 | 983.0 |
| 20260503020656 | 35 | 180 | 0.0 | 0.0 | 0.00 | 0.00 | 0.00 | 78 | 982.0 |
| 20260503020155 | 35 | 180 | 0.0 | 0.9 | 0.00 | 0.00 | 0.00 | 78 | 982.0 |
| 20260503015655 | 35 | 180 | 0.0 | 0.0 | 0.00 | 0.00 | 0.00 | 76 | 982.0 |
| 20260503015155 | 35 | 180 | 0.0 | 0.0 | 0.00 | 0.00 | 0.00 | 74 | 982.0 |
| 20260503014655 | 36 | 180 | 0.0 | 0.0 | 0.00 | 0.00 | 0.00 | 72 | 982.0 |
| 20260503014155 | 37 | 180 | 0.0 | 0.0 | 0.00 | 0.00 | 0.00 | 71 | 982.0 |
| 20260503013655 | 37 | 180 | 0.0 | 0.0 | 0.00 | 0.00 | 0.00 | 69 | 982.0 |
| 20260503013156 | 38 | 180 | 0.0 | 0.0 | 0.00 | 0.00 | 0.00 | 68 | 982.0 |
| 20260503012655 | 38 | 180 | 0.0 | 0.0 | 0.00 | 0.00 | 0.00 | 67 | 982.0 |
| 20260503012155 | 39 | 181 | 0.0 | 0.0 | 0.00 | 0.00 | 0.00 | 66 | 982.0 |
| 20260503011655 | 40 | 181 | 0.0 | 0.9 | 0.00 | 0.00 | 0.00 | 65 | 982.0 |
| 20260503011155 | 40 | 180 | 0.0 | 0.0 | 0.00 | 0.00 | 0.00 | 64 | 982.0 |
| 20260503010655 | 40 | 180 | 0.0 | 0.0 | 0.00 | 0.00 | 0.00 | 64 | 982.0 |
| 20260503010155 | 40 | 180 | 0.0 | 0.0 | 0.00 | 0.00 | 0.00 | 61 | 982.0 |
| 20260503005656 | 41 | 180 | 0.0 | 0.0 | 0.00 | 0.00 | 0.00 | 60 | 982.0 |
| 20260503005155 | 42 | 180 | 0.0 | 0.0 | 0.00 | 0.00 | 0.00 | 57 | 982.0 |
| 20260503004656 | 42 | 180 | 0.0 | 0.0 | 0.00 | 0.00 | 0.00 | 54 | 982.0 |
| 20260503004155 | 43 | 185 | 0.0 | 0.0 | 0.00 | 0.00 | 0.00 | 53 | 982.0 |
| 20260503003655 | 44 | 200 | 0.0 | 0.9 | 0.00 | 0.00 | 0.00 | 52 | 982.0 |
| 20260503003155 | 44 | 200 | 0.0 | 0.0 | 0.00 | 0.00 | 0.00 | 52 | 982.0 |
| 20260503002655 | 45 | 206 | 0.9 | 0.9 | 0.00 | 0.00 | 0.00 | 51 | 982.0 |
| 20260503002155 | 45 | 211 | 0.9 | 1.7 | 0.00 | 0.00 | 0.00 | 51 | 982.0 |
| 20260503001656 | 45 | 211 | 0.0 | 0.0 | 0.00 | 0.00 | 0.00 | 51 | 982.0 |
| 20260503001155 | 46 | 212 | 0.0 | 0.0 | 0.00 | 0.00 | 0.00 | 50 | 982.0 |
| 20260503000655 | 46 | 266 | 0.9 | 0.9 | 0.00 | 0.00 | 0.00 | 49 | 982.0 |
| 20260503000155 | 47 | 270 | 1.7 | 1.7 | 0.00 | 0.00 | 0.00 | 47 | 982.0 |
| 20260502235655 | 47 | 262 | 0.9 | 5.2 | 0.00 | 0.00 | 0.00 | 46 | 982.0 |
| 20260502235154 | 48 | 274 | 2.6 | 3.5 | 0.00 | 0.00 | 0.00 | 46 | 982.0 |
| 20260502234655 | 47 | 275 | 2.6 | 5.2 | 0.00 | 0.00 | 0.00 | 45 | 982.0 |
| 20260502234155 | 47 | 283 | 1.7 | 5.2 | 0.00 | 0.00 | 0.00 | 46 | 982.0 |
| 20260502233655 | 47 | 273 | 1.7 | 2.6 | 0.00 | 0.00 | 0.00 | 47 | 982.0 |
| 20260502233155 | 47 | 259 | 1.7 | 1.7 | 0.00 | 0.00 | 0.00 | 47 | 982.0 |
| 20260502232657 | 47 | 271 | 0.0 | 3.5 | 0.00 | 0.00 | 0.00 | 47 | 982.0 |
| 20260502232155 | 47 | 294 | 0.9 | 5.2 | 0.00 | 0.00 | 0.00 | 46 | 982.0 |
| 20260502231655 | 47 | 292 | 3.5 | 6.1 | 0.00 | 0.00 | 0.00 | 44 | 982.0 |
| 20260502231155 | 47 | 251 | 3.5 | 6.1 | 0.00 | 0.00 | 0.00 | 44 | 982.0 |
| 20260502230655 | 47 | 265 | 1.7 | 3.5 | 0.00 | 0.00 | 0.00 | 44 | 982.0 |
| 20260502230156 | 47 | 274 | 2.6 | 5.2 | 0.00 | 0.00 | 0.00 | 43 | 982.0 |
| 20260502225655 | 48 | 302 | 2.6 | 5.2 | 0.00 | 0.00 | 0.00 | 44 | 982.0 |
| 20260502225155 | 48 | 289 | 3.5 | 6.1 | 0.00 | 0.00 | 0.00 | 44 | 982.0 |
| 20260502224655 | 48 | 267 | 2.6 | 6.1 | 0.00 | 0.00 | 0.00 | 42 | 982.0 |
| 20260502224155 | 48 | 321 | 1.7 | 1.7 | 0.00 | 0.00 | 0.00 | 45 | 982.0 |
| 20260502223655 | 48 | 344 | 3.5 | 3.5 | 0.00 | 0.00 | 0.00 | 43 | 982.0 |
| 20260502223156 | 48 | 248 | 2.6 | 3.5 | 0.00 | 0.00 | 0.00 | 46 | 982.0 |
| 20260502222655 | 48 | 273 | 1.7 | 2.6 | 0.00 | 0.00 | 0.00 | 44 | 982.0 |
| 20260502222155 | 48 | 340 | 1.7 | 3.5 | 0.00 | 0.00 | 0.00 | 43 | 982.0 |
| 20260502221655 | 48 | 298 | 2.6 | 3.5 | 0.00 | 0.00 | 0.00 | 43 | 982.0 |
| 20260502221155 | 48 | 330 | 2.6 | 2.6 | 0.00 | 0.00 | 0.00 | 42 | 982.0 |
| 20260502220655 | 49 | 309 | 2.6 | 9.6 | 0.00 | 0.00 | 0.00 | 40 | 982.0 |
| 20260502220155 | 48 | 337 | 4.3 | 6.1 | 0.00 | 0.00 | 0.00 | 41 | 982.0 |
| 20260502215655 | 48 | 321 | 1.7 | 2.6 | 0.00 | 0.00 | 0.00 | 45 | 982.0 |
| 20260502215155 | 48 | 272 | 3.5 | 7.0 | 0.00 | 0.00 | 0.00 | 44 | 982.0 |
| 20260502214655 | 49 | 298 | 2.6 | 6.1 | 0.00 | 0.00 | 0.00 | 42 | 982.0 |
| 20260502214156 | 49 | 275 | 2.6 | 5.2 | 0.00 | 0.00 | 0.00 | 41 | 982.0 |
| 20260502213655 | 49 | 14 | 2.6 | 5.2 | 0.00 | 0.00 | 0.00 | 44 | 982.0 |
| 20260502213155 | 48 | 303 | 1.7 | 2.6 | 0.00 | 0.00 | 0.00 | 44 | 982.0 |
| 20260502212655 | 48 | 246 | 1.7 | 6.1 | 0.00 | 0.00 | 0.00 | 43 | 982.0 |
| 20260502212155 | 48 | 298 | 2.6 | 6.1 | 0.00 | 0.00 | 0.00 | 45 | 982.0 |
| 20260502211655 | 48 | 2 | 3.5 | 6.1 | 0.00 | 0.00 | 0.00 | 42 | 982.0 |
| 20260502211155 | 47 | 313 | 1.7 | 6.1 | 0.00 | 0.00 | 0.00 | 43 | 982.0 |
| 20260502210655 | 47 | 356 | 4.3 | 7.0 | 0.00 | 0.00 | 0.00 | 43 | 982.0 |
| 20260502210155 | 47 | 200 | 1.7 | 6.1 | 0.00 | 0.00 | 0.00 | 43 | 982.0 |
| 20260502205657 | 47 | 347 | 4.3 | 5.2 | 0.00 | 0.00 | 0.00 | 42 | 982.0 |
| 20260502205155 | 48 | 278 | 4.3 | 7.8 | 0.00 | 0.00 | 0.00 | 41 | 982.0 |
| 20260502204655 | 48 | 273 | 3.5 | 7.0 | 0.00 | 0.00 | 0.00 | 43 | 982.0 |
| 20260502204155 | 49 | 285 | 3.5 | 7.8 | 0.00 | 0.00 | 0.00 | 40 | 982.0 |
| 20260502203655 | 48 | 355 | 3.5 | 6.1 | 0.00 | 0.00 | 0.00 | 43 | 982.0 |
| 20260502203155 | 48 | 308 | 1.7 | 3.5 | 0.00 | 0.00 | 0.00 | 40 | 982.0 |
| 20260502202655 | 48 | 355 | 5.2 | 7.8 | 0.00 | 0.00 | 0.00 | 40 | 983.0 |
| 20260502202155 | 48 | 275 | 1.7 | 5.2 | 0.00 | 0.00 | 0.00 | 42 | 983.0 |
| 20260502201655 | 48 | 309 | 2.6 | 6.1 | 0.00 | 0.00 | 0.00 | 43 | 982.0 |
| 20260502201155 | 48 | 285 | 5.2 | 7.8 | 0.00 | 0.00 | 0.00 | 43 | 983.0 |
| 20260502200655 | 48 | 300 | 5.2 | 7.8 | 0.00 | 0.00 | 0.00 | 40 | 983.0 |
| 20260502200155 | 48 | 298 | 4.3 | 5.2 | 0.00 | 0.00 | 0.00 | 40 | 983.0 |
| 20260502195655 | 48 | 321 | 2.6 | 3.5 | 0.00 | 0.00 | 0.00 | 42 | 983.0 |
| 20260502195156 | 48 | 254 | 3.5 | 6.1 | 0.00 | 0.00 | 0.00 | 43 | 983.0 |
| 20260502194655 | 48 | 260 | 5.2 | 7.8 | 0.00 | 0.00 | 0.00 | 41 | 983.0 |
| 20260502194157 | 48 | 256 | 1.7 | 7.8 | 0.00 | 0.00 | 0.00 | 42 | 983.0 |
| 20260502193655 | 48 | 291 | 1.7 | 7.8 | 0.00 | 0.00 | 0.00 | 43 | 983.0 |